Location: Hilton Head Island
(32.2163°N, 80.7526°W)
Time: 00:02:23
(UTC-05:00)

Transit 2A - All Passes

Search period start: 18 February 2026 00:00
Search period end: 28 February 2026 00:00
Orbit: 589 x 955 km, 66.7° (Epoch: 17 February)

Date Brightness Start Highest point End Pass type
(mag) Time Alt. Az. Time Alt. Az. Time Alt. Az.
18 Feb - 11:27:04 10° SSE 11:32:14 32° ESE 11:37:41 10° NE daylight
18 Feb - 13:09:41 10° WSW 13:15:12 36° WNW 13:20:58 10° N daylight
18 Feb - 20:21:04 10° NNE 20:22:30 11° NE 20:23:54 10° ENE visible
18 Feb - 22:00:49 10° NNW 22:06:39 78° ENE 22:11:50 10° SSE visible
19 Feb - 10:51:54 10° SSE 10:56:08 20° ESE 11:00:31 10° ENE daylight
19 Feb - 12:32:49 10° SW 12:38:42 54° WNW 12:44:53 10° NNE daylight
19 Feb - 21:24:36 10° NNW 21:30:14 49° ENE 21:35:18 10° SE visible
19 Feb - 23:09:07 10° WNW 23:12:41 17° WSW 23:16:02 10° SW night (unlit)
20 Feb - 10:17:49 10° ESE 10:20:05 12° E 10:22:24 10° ENE daylight
20 Feb - 11:56:17 10° SSW 12:02:17 81° WNW 12:08:39 10° NNE daylight
20 Feb - 13:43:34 10° WNW 13:46:22 13° NW 13:49:12 10° NNW daylight
20 Feb - 20:48:33 10° N 20:53:43 32° NE 20:58:25 10° ESE visible
20 Feb - 22:31:50 10° NW 22:36:36 28° WSW 22:40:58 10° SSW visible
21 Feb - 11:20:03 10° SSW 11:25:58 67° ESE 11:32:14 10° NNE daylight
21 Feb - 13:05:20 10° W 13:09:37 19° NW 13:14:01 10° N daylight
21 Feb - 20:12:45 10° N 20:17:06 21° NE 20:21:09 10° E visible
21 Feb - 21:55:01 10° NW 22:00:27 46° WSW 22:05:21 10° S visible
22 Feb - 10:44:08 10° S 10:49:44 43° ESE 10:55:38 10° NE daylight
22 Feb - 12:27:49 10° WSW 12:32:58 28° NW 12:38:19 10° N daylight
22 Feb - 19:37:21 10° NNE 19:40:23 14° NE 19:43:17 10° E visible
22 Feb - 21:18:29 10° NNW 21:24:13 77° WSW 21:29:20 10° SSE visible
23 Feb - 10:08:35 10° SSE 10:13:34 28° ESE 10:18:45 10° NE daylight
23 Feb - 11:50:43 10° SW 11:56:25 41° WNW 12:02:21 10° N daylight
23 Feb - 20:42:08 10° NNW 20:47:52 67° ENE 20:52:59 10° SE visible
23 Feb - 22:28:10 10° W 22:30:01 12° W 22:31:50 10° WSW visible
24 Feb - 09:33:38 10° SE 09:37:29 18° ESE 09:41:26 10° ENE daylight
24 Feb - 11:13:58 10° SW 11:19:56 61° WNW 11:26:13 10° NNE daylight
24 Feb - 20:05:58 10° NNW 20:11:25 42° ENE 20:16:20 10° SE visible
24 Feb - 21:50:03 10° WNW 21:54:00 20° WSW 21:57:41 10° SSW visible
25 Feb - 09:00:39 10° ESE 09:01:26 10° E 09:02:14 10° E daylight
25 Feb - 10:37:31 10° SSW 10:43:34 89° ESE 10:49:55 10° NNE daylight
25 Feb - 12:24:04 10° W 12:27:29 15° NW 12:30:56 10° NNW daylight
25 Feb - 19:30:00 10° N 19:34:52 28° NE 19:39:21 10° ESE visible
25 Feb - 21:12:57 10° NW 21:17:54 33° WSW 21:22:25 10° S visible
26 Feb - 10:01:22 10° S 10:07:15 59° ESE 10:13:27 10° NE daylight
26 Feb - 11:46:08 10° W 11:50:46 22° NW 11:55:32 10° N daylight
26 Feb - 18:54:17 10° N 18:58:13 19° NE 19:01:54 10° E visible
26 Feb - 20:36:13 10° NW 20:41:43 54° WSW 20:46:39 10° S visible
27 Feb - 09:25:33 10° S 09:31:03 38° ESE 09:36:46 10° NE daylight
27 Feb - 11:08:45 10° WSW 11:14:09 31° NW 11:19:43 10° N daylight
27 Feb - 18:19:12 10° NNE 18:21:28 12° NE 18:23:41 10° ENE daylight
27 Feb - 19:59:44 10° NNW 20:05:27 88° WSW 20:10:32 10° SSE visible
